KD0SBM Weather Reports


Display with metric or nautical units.
time (UTC)temp
F
wind
direction
speed
MPH
gust
MPH
rain 1hr
in
rain 24hr
in
rain mn
in
humidity
%
barometer
mb
20260906154020 72 128 7.0 12.0 0.00 0.01 0.01 83 1019.9
20260906153527 72 140 7.0 12.0 0.00 0.01 0.01 84 1020.0
20260906153045 72 126 3.0 10.0 0.00 0.01 0.01 85 1020.0
20260906152520 72 112 4.0 10.0 0.00 0.01 0.01 85 1020.0
20260906152028 72 132 5.0 11.0 0.00 0.01 0.01 85 1020.1
20260906151543 71 122 4.0 12.0 0.00 0.01 0.01 86 1020.0
20260906151025 71 155 7.0 14.0 0.00 0.01 0.01 86 1019.9
20260906150521 71 126 7.0 14.0 0.00 0.01 0.01 86 1019.9
20260906150042 71 115 5.0 14.0 0.00 0.01 0.01 87 1019.9
20260906145518 71 126 5.0 16.0 0.00 0.01 0.01 88 1019.9
20260906145019 70 45 8.0 16.0 0.00 0.01 0.01 88 1019.8
20260906144544 70 116 8.0 14.0 0.00 0.01 0.01 89 1019.7
20260906144026 70 115 7.0 14.0 0.00 0.01 0.01 90 1019.7
20260906143525 70 129 6.0 11.0 0.00 0.01 0.01 90 1019.7
20260906143049 70 140 6.0 11.0 0.00 0.01 0.01 91 1019.9
20260906142525 70 129 5.0 10.0 0.00 0.01 0.01 92 1019.9
20260906142026 69 135 4.0 11.0 0.00 0.01 0.01 92 1019.9
20260906141542 69 119 3.0 11.0 0.00 0.01 0.01 92 1019.9
20260906141029 69 144 5.0 11.0 0.00 0.01 0.01 93 1019.8
20260906140525 69 130 3.0 9.0 0.00 0.01 0.01 93 1019.8
20260906140059 69 120 1.0 9.0 0.00 0.01 0.01 93 1019.8
20260906135520 68 108 4.0 9.0 0.00 0.01 0.01 93 1019.8
20260906135022 68 114 5.0 10.0 0.00 0.01 0.01 93 1019.7
20260906134551 68 138 5.0 10.0 0.00 0.01 0.01 93 1019.7
20260906134023 68 119 4.0 12.0 0.00 0.01 0.01 93 1019.5
20260906133523 68 125 4.0 12.0 0.00 0.01 0.01 93 1019.5
20260906133042 68 113 5.0 12.0 0.00 0.01 0.01 93 1019.4
20260906132518 68 134 4.0 12.0 0.00 0.01 0.01 93 1019.4
20260906132021 68 127 6.0 12.0 0.00 0.01 0.01 93 1019.4
20260906131543 68 135 4.0 10.0 0.00 0.01 0.01 93 1019.3
20260906131020 68 108 4.0 10.0 0.00 0.01 0.01 93 1019.4
20260906130524 68 115 4.0 10.0 0.00 0.01 0.01 93 1019.3
20260906130050 68 122 4.0 10.0 0.00 0.01 0.01 93 1019.4
20260906125525 67 140 2.0 7.0 0.01 0.01 0.01 93 1019.4
20260906125023 67 134 1.0 6.0 0.01 0.01 0.01 93 1019.4
20260906124545 67 103 2.0 6.0 0.01 0.01 0.01 93 1019.3
20260906124023 67 109 1.0 4.0 0.01 0.01 0.01 92 1019.3
20260906123519 66 0 0.0 4.0 0.01 0.01 0.01 92 1019.3
20260906123041 66 0 0.0 4.0 0.01 0.01 0.01 92 1019.3
20260906122521 66 0 1.0 4.0 0.01 0.01 0.01 92 1019.3
20260906122023 66 0 0.0 4.0 0.01 0.01 0.01 92 1019.2
20260906121553 66 0 0.0 3.0 0.01 0.01 0.01 92 1019.2
20260906121020 66 0 0.0 4.0 0.01 0.01 0.01 92 1019.2
20260906120525 66 0 0.0 4.0 0.01 0.01 0.01 92 1019.1
20260906120046 66 0 0.0 4.0 0.01 0.01 0.01 92 1019.0
20260906115527 66 113 0.0 4.0 0.00 0.00 0.00 92 1018.9
20260906115024 67 113 0.0 3.0 0.00 0.00 0.00 92 1018.8
20260906114552 67 114 0.0 4.0 0.00 0.00 0.00 92 1018.9
20260906114022 67 0 0.0 4.0 0.00 0.00 0.00 92 1018.8
20260906113524 67 123 1.0 3.0 0.00 0.00 0.00 91 1018.7
20260906113051 67 0 0.0 2.0 0.00 0.00 0.00 91 1018.8
20260906112520 67 0 0.0 1.0 0.00 0.00 0.00 91 1018.8
20260906112019 67 0 0.0 5.0 0.00 0.00 0.00 91 1018.7
20260906111542 67 0 0.0 7.0 0.00 0.00 0.00 91 1018.6
20260906111020 67 125 2.0 7.0 0.00 0.00 0.00 91 1018.6
20260906110518 67 107 1.0 4.0 0.00 0.00 0.00 91 1018.6
20260906110046 67 0 0.0 2.0 0.00 0.00 0.00 91 1018.8
20260906105525 67 0 0.0 0.0 0.00 0.00 0.00 91 1018.7
20260906105024 67 0 0.0 0.0 0.00 0.00 0.00 91 1018.6
20260906104543 67 0 0.0 0.0 0.00 0.00 0.00 91 1018.6
20260906104023 67 0 0.0 0.0 0.00 0.00 0.00 91 1018.5
20260906103522 67 0 0.0 0.0 0.00 0.00 0.00 91 1018.6
20260906103042 68 0 0.0 0.0 0.00 0.00 0.00 91 1018.5
20260906102520 68 0 0.0 0.0 0.00 0.00 0.00 91 1018.5
20260906102020 68 0 0.0 0.0 0.00 0.00 0.00 91 1018.5
20260906101541 68 0 0.0 1.0 0.00 0.00 0.00 91 1018.5
20260906101023 68 0 0.0 2.0 0.00 0.00 0.00 91 1018.4
20260906100523 68 0 0.0 2.0 0.00 0.00 0.00 91 1018.3
20260906100045 68 0 0.0 2.0 0.00 0.00 0.00 91 1018.2
20260906095520 68 0 0.0 2.0 0.00 0.00 0.00 91 1018.1
20260906095024 68 0 0.0 2.0 0.00 0.00 0.00 91 1018.0
20260906094548 68 0 0.0 3.0 0.00 0.00 0.00 91 1017.9
20260906094020 68 151 0.0 3.0 0.00 0.00 0.00 91 1017.9
20260906093520 68 151 0.0 5.0 0.00 0.00 0.00 91 1017.9
20260906093041 68 0 0.0 6.0 0.00 0.00 0.00 91 1017.9
20260906092520 68 132 1.0 6.0 0.00 0.00 0.00 91 1017.8
20260906092022 68 0 1.0 7.0 0.00 0.00 0.00 91 1017.7
20260906091549 68 116 1.0 7.0 0.00 0.00 0.00 91 1017.6
20260906091023 68 130 1.0 5.0 0.00 0.00 0.00 91 1017.5
20260906090523 68 107 1.0 4.0 0.00 0.00 0.00 91 1017.7
20260906090044 68 0 1.0 3.0 0.00 0.00 0.00 91 1017.7
20260906085519 68 105 1.0 3.0 0.00 0.00 0.00 91 1017.7
20260906085020 68 101 0.0 4.0 0.00 0.00 0.00 90 1017.8
20260906084546 68 0 0.0 7.0 0.00 0.00 0.00 90 1017.8
20260906084023 68 96 0.0 7.0 0.00 0.00 0.00 90 1017.6
20260906083521 68 97 0.0 6.0 0.00 0.00 0.00 90 1017.7
20260906083041 68 0 0.0 6.0 0.00 0.00 0.00 90 1017.7
20260906082518 68 96 0.0 7.0 0.00 0.00 0.00 90 1017.7
20260906082018 68 97 1.0 7.0 0.00 0.00 0.00 90 1017.7
20260906081547 68 0 1.0 7.0 0.00 0.00 0.00 90 1017.6
20260906081025 68 0 0.0 3.0 0.00 0.00 0.00 90 1017.8
20260906080525 68 0 0.0 4.0 0.00 0.00 0.00 89 1017.9
20260906080044 68 0 0.0 6.0 0.00 0.00 0.00 89 1017.9
20260906075524 68 104 1.0 6.0 0.00 0.00 0.00 89 1017.9
20260906075024 68 107 1.0 4.0 0.00 0.00 0.00 89 1017.8
20260906074552 68 123 0.0 3.0 0.00 0.00 0.00 89 1017.9
20260906074020 68 126 0.0 3.0 0.00 0.00 0.00 88 1017.9
20260906073521 68 0 0.0 2.0 0.00 0.00 0.00 88 1018.0
20260906073047 68 0 0.0 0.0 0.00 0.00 0.00 88 1018.2
20260906072520 69 0 0.0 0.0 0.00 0.00 0.00 88 1018.1
20260906072025 69 0 0.0 1.0 0.00 0.00 0.00 88 1018.0
20260906071544 69 0 0.0 1.0 0.00 0.00 0.00 88 1018.1
20260906071025 69 0 0.0 1.0 0.00 0.00 0.00 88 1018.1
20260906070527 69 0 0.0 2.0 0.00 0.00 0.00 88 1018.0
20260906070044 69 0 0.0 2.0 0.00 0.00 0.00 88 1017.9
20260906065525 69 0 0.0 1.0 0.00 0.00 0.00 88 1018.0
20260906065019 69 0 0.0 1.0 0.00 0.00 0.00 88 1018.0
20260906064542 70 0 0.0 0.0 0.00 0.00 0.00 88 1018.1
20260906064018 70 0 0.0 0.0 0.00 0.00 0.00 88 1018.2
20260906063518 70 0 0.0 0.0 0.00 0.00 0.00 88 1018.2
20260906063045 70 0 0.0 0.0 0.00 0.00 0.00 88 1018.2
20260906062529 70 0 0.0 0.0 0.00 0.00 0.00 88 1018.2
20260906062020 70 0 0.0 0.0 0.00 0.00 0.00 88 1018.2
20260906061546 70 0 0.0 0.0 0.00 0.00 0.00 88 1018.2
20260906061023 70 0 0.0 0.0 0.00 0.00 0.00 87 1018.2
20260906060524 70 0 0.0 0.0 0.00 0.00 0.00 87 1018.3
20260906055524 70 0 0.0 0.0 0.00 0.00 0.00 87 1018.2
20260906055024 70 0 0.0 0.0 0.00 0.00 0.00 87 1018.2
20260906054550 70 0 0.0 0.0 0.00 0.00 0.00 87 1018.2
20260906054019 71 0 0.0 0.0 0.00 0.00 0.00 87 1018.2
20260906053520 71 0 0.0 0.0 0.00 0.00 0.00 87 1018.2
20260906053045 71 0 0.0 0.0 0.00 0.00 0.00 87 1018.2
20260906052526 71 0 0.0 0.0 0.00 0.00 0.00 87 1018.3
20260906052024 71 0 0.0 0.0 0.00 0.00 0.00 87 1018.2
20260906051545 71 0 0.0 0.0 0.00 0.00 0.00 86 1018.4
20260906051024 71 0 0.0 0.0 0.00 0.00 0.00 86 1018.3
20260906050525 71 0 0.0 0.0 0.00 0.00 0.00 86 1018.2
20260906050053 71 0 0.0 0.0 0.00 0.00 0.00 86 1018.3
20260906045524 71 0 0.0 3.0 0.00 0.00 0.00 86 1018.3
20260906045024 71 0 0.0 3.0 0.00 0.00 0.00 86 1018.4
20260906044544 71 0 0.0 0.0 0.00 0.00 0.00 86 1018.4
20260906044024 71 0 0.0 0.0 0.00 0.00 0.00 86 1018.4
20260906043520 71 0 0.0 0.0 0.00 0.00 0.00 86 1018.5
20260906043044 71 0 0.0 0.0 0.00 0.00 0.00 86 1018.4
20260906042521 71 0 0.0 0.0 0.00 0.00 0.00 86 1018.4
20260906042020 71 0 0.0 0.0 0.00 0.00 0.00 86 1018.4
20260906041546 71 0 0.0 0.0 0.00 0.00 0.00 85 1018.5
20260906041025 71 0 0.0 0.0 0.00 0.00 0.00 85 1018.6
20260906040521 71 0 0.0 0.0 0.00 0.00 0.00 85 1018.5
20260906040044 71 0 0.0 0.0 0.00 0.00 0.00 85 1018.5
20260906035528 71 0 0.0 0.0 0.00 0.00 0.00 85 1018.4
20260906035020 71 0 0.0 0.0 0.00 0.00 0.00 85 1018.6
20260906034554 71 0 0.0 0.0 0.00 0.00 0.00 85 1018.5
20260906034020 72 0 0.0 0.0 0.00 0.00 0.00 85 1018.5
20260906033520 72 0 0.0 0.0 0.00 0.00 0.00 85 1018.5
20260906033041 72 0 0.0 0.0 0.00 0.00 0.00 84 1018.5
20260906032519 72 0 0.0 0.0 0.00 0.00 0.00 84 1018.5
20260906032022 72 0 0.0 0.0 0.00 0.00 0.00 84 1018.4
20260906031606 71 0 0.0 0.0 0.00 0.00 0.00 83 1018.7
20260906031023 71 0 0.0 0.0 0.00 0.00 0.00 82 1018.6
20260906030525 72 0 0.0 0.0 0.00 0.00 0.00 82 1018.7
20260906030044 72 0 0.0 0.0 0.00 0.00 0.00 82 1018.6
20260906025521 72 0 0.0 0.0 0.00 0.00 0.00 82 1018.5
20260906025021 72 0 0.0 0.0 0.00 0.00 0.00 81 1018.3
20260906024551 72 0 0.0 0.0 0.00 0.00 0.00 81 1018.1
20260906024020 72 0 0.0 0.0 0.00 0.00 0.00 81 1017.9
20260906023520 72 0 0.0 0.0 0.00 0.00 0.00 81 1018.1
20260906023053 72 0 0.0 0.0 0.00 0.00 0.00 80 1018.0
20260906022525 73 0 0.0 0.0 0.00 0.00 0.00 80 1017.8
20260906022025 73 0 0.0 0.0 0.00 0.00 0.00 79 1017.8
20260906021543 73 0 0.0 0.0 0.00 0.00 0.00 79 1017.6
20260906021025 73 0 0.0 0.0 0.00 0.00 0.00 78 1017.4
20260906020524 74 0 0.0 0.0 0.00 0.00 0.00 78 1017.3
20260906020049 74 0 0.0 0.0 0.00 0.00 0.00 77 1017.2
20260906015518 74 0 0.0 0.0 0.00 0.00 0.00 77 1017.1
20260906015019 74 0 0.0 0.0 0.00 0.00 0.00 76 1016.9
20260906014542 75 0 0.0 0.0 0.00 0.00 0.00 76 1016.7
20260906014024 75 0 0.0 2.0 0.00 0.00 0.00 76 1016.6
20260906013519 75 0 0.0 2.0 0.00 0.00 0.00 75 1016.5
20260906013041 75 0 0.0 2.0 0.00 0.00 0.00 75 1016.6
20260906012520 75 0 0.0 3.0 0.00 0.00 0.00 75 1016.5
20260906012022 76 127 0.0 3.0 0.00 0.00 0.00 75 1016.6
20260906011545 76 0 1.0 4.0 0.00 0.00 0.00 75 1016.5
20260906011020 76 127 1.0 4.0 0.00 0.00 0.00 74 1016.4
20260906010522 76 0 1.0 5.0 0.00 0.00 0.00 74 1016.4
20260906010041 76 127 2.0 9.0 0.00 0.00 0.00 74 1016.3
20260906005520 77 127 4.0 9.0 0.00 0.00 0.00 74 1016.1
20260906005025 77 125 4.0 9.0 0.00 0.00 0.00 74 1016.0
20260906004549 77 137 3.0 8.0 0.00 0.00 0.00 74 1016.0
20260906004027 78 118 3.0 7.0 0.00 0.00 0.00 73 1016.0
20260906003523 78 127 4.0 7.0 0.00 0.00 0.00 73 1016.0
20260906003042 78 121 3.0 8.0 0.00 0.00 0.00 73 1016.1
20260906002518 78 124 2.0 10.0 0.00 0.00 0.00 73 1016.1
20260906002020 79 131 3.0 10.0 0.00 0.00 0.00 73 1016.0
20260906001544 79 103 3.0 8.0 0.00 0.00 0.00 72 1016.0
20260906001025 79 109 3.0 8.0 0.00 0.00 0.00 72 1016.0
20260906000525 79 127 3.0 11.0 0.00 0.00 0.00 72 1016.0
20260906000039 80 113 3.0 11.0 0.00 0.00 0.00 71 1016.0
20260905235525 80 124 4.0 11.0 0.00 0.00 0.00 70 1015.9
20260905235028 80 112 4.0 10.0 0.00 0.00 0.00 70 1015.8
20260905234543 80 105 3.0 10.0 0.00 0.00 0.00 70 1015.7
20260905234019 81 99 2.0 10.0 0.00 0.00 0.00 70 1015.6
20260905233520 81 107 3.0 10.0 0.00 0.00 0.00 70 1015.6
20260905233047 81 74 2.0 10.0 0.00 0.00 0.00 70 1015.6
20260905232520 81 93 3.0 10.0 0.00 0.00 0.00 70 1015.5
20260905232020 81 44 3.0 8.0 0.00 0.00 0.00 70 1015.5
20260905231542 81 0 2.0 9.0 0.00 0.00 0.00 70 1015.4
20260905231028 81 54 2.0 13.0 0.00 0.00 0.00 69 1015.1
20260905230523 81 58 4.0 13.0 0.00 0.00 0.00 70 1015.1
20260905230045 81 113 2.0 10.0 0.00 0.00 0.00 69 1015.2
20260905225524 82 97 2.0 10.0 0.00 0.00 0.00 69 1015.4
20260905225024 82 94 1.0 10.0 0.00 0.00 0.00 69 1015.5
20260905224541 83 102 2.0 7.0 0.00 0.00 0.00 68 1015.5
20260905224025 82 0 0.0 7.0 0.00 0.00 0.00 68 1015.3
20260905223519 82 93 2.0 11.0 0.00 0.00 0.00 68 1015.2
20260905223042 83 108 2.0 11.0 0.00 0.00 0.00 67 1015.4
20260905222521 83 109 3.0 9.0 0.00 0.00 0.00 69 1015.5
20260905222019 83 148 2.0 9.0 0.00 0.00 0.00 68 1015.4
20260905221559 83 119 3.0 13.0 0.00 0.00 0.00 69 1015.2
20260905221026 83 90 5.0 13.0 0.00 0.00 0.00 68 1015.0
20260905220524 83 88 3.0 11.0 0.00 0.00 0.00 70 1015.1
20260905220044 83 82 2.0 11.0 0.00 0.00 0.00 70 1015.1
20260905215524 83 86 3.0 11.0 0.00 0.00 0.00 69 1015.1
20260905215021 83 0 2.0 12.0 0.00 0.00 0.00 70 1015.1
20260905214543 83 15 3.0 12.0 0.00 0.00 0.00 71 1015.2
20260905214020 83 90 3.0 13.0 0.00 0.00 0.00 69 1015.2
20260905213520 83 46 3.0 13.0 0.00 0.00 0.00 70 1015.3
20260905213044 82 0 2.0 13.0 0.00 0.00 0.00 70 1015.3
20260905212521 82 138 3.0 11.0 0.00 0.00 0.00 69 1015.5
20260905212020 82 74 1.0 9.0 0.00 0.00 0.00 69 1015.6
20260905211546 82 99 4.0 9.0 0.00 0.00 0.00 70 1015.8
20260905211021 82 88 2.0 9.0 0.00 0.00 0.00 70 1015.8
20260905210523 83 35 1.0 8.0 0.00 0.00 0.00 70 1015.8
20260905210044 82 29 1.0 8.0 0.00 0.00 0.00 71 1016.0
20260905205519 82 0 2.0 7.0 0.00 0.00 0.00 71 1016.1
20260905205020 82 137 0.0 7.0 0.00 0.00 0.00 74 1016.3
20260905204546 80 93 1.0 7.0 0.00 0.00 0.00 75 1016.4
20260905204023 80 0 0.0 6.0 0.00 0.00 0.00 75 1016.5
20260905203523 80 96 1.0 8.0 0.00 0.00 0.00 75 1016.6
20260905203042 80 110 1.0 8.0 0.00 0.00 0.00 74 1016.7
20260905202522 80 0 3.0 8.0 0.00 0.00 0.00 74 1016.8
20260905202019 80 112 3.0 8.0 0.00 0.00 0.00 74 1016.9
20260905201542 80 107 1.0 7.0 0.00 0.00 0.00 71 1017.0
20260905201020 82 111 4.0 7.0 0.00 0.00 0.00 68 1017.0
20260905200526 81 126 2.0 6.0 0.00 0.00 0.00 73 1017.0
20260905200046 81 138 0.0 9.0 0.00 0.00 0.00 73 1017.0
20260905195519 81 97 3.0 9.0 0.00 0.00 0.00 73 1017.1
20260905195020 80 120 2.0 8.0 0.00 0.00 0.00 72 1017.2
20260905194547 80 97 3.0 8.0 0.00 0.00 0.00 75 1017.3
20260905194023 80 125 3.0 8.0 0.00 0.00 0.00 72 1017.3
20260905193520 79 95 1.0 6.0 0.00 0.00 0.00 75 1017.2
20260905193043 79 93 1.0 5.0 0.00 0.00 0.00 75 1017.3
20260905192522 79 0 1.0 4.0 0.00 0.00 0.00 75 1017.4
20260905192018 80 0 0.0 8.0 0.00 0.00 0.00 76 1017.4
20260905191543 80 134 2.0 8.0 0.00 0.00 0.00 73 1017.4
20260905191018 81 101 3.0 8.0 0.00 0.00 0.00 76 1017.3
20260905190527 80 0 0.0 7.0 0.00 0.00 0.00 74 1017.4
20260905190051 80 145 2.0 7.0 0.00 0.00 0.00 75 1017.4
20260905185523 80 153 2.0 7.0 0.00 0.00 0.00 74 1017.4
20260905185023 81 145 2.0 8.0 0.00 0.00 0.00 72 1017.4
20260905184548 81 0 2.0 9.0 0.00 0.00 0.00 74 1017.3
20260905184020 82 109 2.0 9.0 0.00 0.00 0.00 76 1017.1
20260905183521 81 103 3.0 8.0 0.00 0.00 0.00 74 1017.2
20260905183043 81 106 1.0 6.0 0.00 0.00 0.00 77 1017.2
20260905182520 79 0 0.0 6.0 0.00 0.00 0.00 80 1017.2
20260905182018 78 114 1.0 7.0 0.00 0.00 0.00 76 1017.4
20260905181540 79 103 3.0 10.0 0.00 0.00 0.00 76 1017.5
20260905181019 79 105 5.0 10.0 0.00 0.00 0.00 75 1017.5
20260905180525 79 0 2.0 7.0 0.00 0.00 0.00 77 1017.6
20260905180100 80 125 1.0 8.0 0.00 0.00 0.00 76 1017.8
20260905175524 80 132 3.0 8.0 0.00 0.00 0.00 72 1017.8
20260905175021 81 126 0.0 8.0 0.00 0.00 0.00 79 1017.9
20260905174550 79 123 3.0 8.0 0.00 0.00 0.00 82 1018.0
20260905174024 78 109 3.0 8.0 0.00 0.00 0.00 80 1018.0
20260905173525 78 102 0.0 7.0 0.00 0.00 0.00 79 1018.2
20260905173108 78 101 1.0 10.0 0.00 0.00 0.00 80 1018.3
20260905172525 78 135 4.0 10.0 0.00 0.00 0.00 79 1018.3
20260905172025 78 0 0.0 7.0 0.00 0.00 0.00 79 1018.2
20260905171552 78 134 4.0 8.0 0.00 0.00 0.00 80 1018.3
20260905171024 78 0 2.0 8.0 0.00 0.00 0.00 81 1018.2
20260905170525 76 124 2.0 8.0 0.00 0.00 0.00 84 1018.2
20260905170045 76 105 0.0 4.0 0.00 0.00 0.00 85 1018.2
20260905165525 76 0 1.0 4.0 0.00 0.00 0.00 85 1018.3
20260905165022 75 75 0.0 4.0 0.00 0.00 0.00 85 1018.3
20260905164545 75 0 1.0 4.0 0.00 0.00 0.00 84 1018.3
20260905164023 76 0 1.0 3.0 0.00 0.00 0.00 85 1018.4
20260905163525 76 55 0.0 3.0 0.00 0.00 0.00 86 1018.4
20260905163047 76 0 0.0 3.0 0.00 0.00 0.00 89 1018.4
20260905162525 75 59 0.0 4.0 0.00 0.00 0.00 88 1018.5
20260905162025 75 0 0.0 4.0 0.00 0.00 0.00 89 1018.4
20260905161545 74 23 2.0 4.0 0.00 0.00 0.00 90 1018.4
20260905161028 73 0 0.0 2.0 0.00 0.00 0.00 92 1018.3
20260905160524 72 0 0.0 3.0 0.00 0.00 0.00 92 1018.4
20260905160053 73 0 0.0 7.0 0.00 0.00 0.00 93 1018.3
20260905155527 72 115 0.0 7.0 0.00 0.00 0.00 93 1018.1
20260905155022 72 94 0.0 7.0 0.00 0.00 0.00 93 1017.8
20260905154551 71 0 0.0 3.0 0.00 0.00 0.00 94 1017.8